{"data":{"norad_id":62248,"intl_designator":"2024-232M","name":"QIANFAN-47","alt_names":[],"object_type":"PAYLOAD","status":"ACTIVE","operator":null,"country":"PRC","launch_date":"2024-12-05","launch_site_code":"TAISC","launch_vehicle":null,"mission":null,"orbit_class":"UNKNOWN","rcs_meters":null,"size_class":null,"mass_kg":null,"dimensions":null,"purposes":[],"wikipedia_slug":null,"has_3d_model":false,"image_url":null,"decayed_at":null,"tle_current":{"epoch":"2026-05-25T03:00:30.310848Z","epoch_age_seconds":74916,"freshness":"FRESH","line1":"1 62248U 24232M   26145.12535082  .00000093  00000+0  12496-3 0  9995","line2":"2 62248  89.0097  24.7955 0016870  85.1647 275.1430 13.51009871121306","mean_motion":13.51009871,"eccentricity":0.001687,"inclination_deg":89.0097,"raan_deg":24.7955,"arg_perigee_deg":85.1647,"mean_anomaly_deg":275.143,"bstar":0.00012496,"rev_number":12130,"period_min":106.58693403433,"perigee_km":1055.9827597376,"apogee_km":1081.107865861,"semimajor_km":7446.6823127993,"source":"CELESTRAK","updated_at":"2026-05-25T13:38:02.868166Z"}}}